TimeCDT,TemperatureF,Dew PointF,Humidity,Sea Level PressureIn,VisibilityMPH,Wind Direction,Wind SpeedMPH,Gust SpeedMPH,PrecipitationIn,Events,Conditions,WindDirDegrees,DateUTC
12:54 AM,75.0,70.0,84,30.11,8.0,SE,4.6,-,N/A,,Clear,130,2013-09-11 05:54:00
1:54 AM,73.9,70.0,87,30.11,7.0,SSE,4.6,-,N/A,,Partly Cloudy,150,2013-09-11 06:54:00
2:54 AM,73.9,70.0,87,30.11,7.0,Calm,Calm,-,N/A,,Clear,0,2013-09-11 07:54:00
3:54 AM,72.0,69.1,91,30.10,5.0,Calm,Calm,-,N/A,,Clear,0,2013-09-11 08:54:00
4:54 AM,71.1,69.1,93,30.11,5.0,Calm,Calm,-,N/A,,Clear,0,2013-09-11 09:54:00
5:54 AM,71.1,68.0,90,30.12,4.0,Calm,Calm,-,N/A,,Clear,0,2013-09-11 10:54:00
6:54 AM,71.1,68.0,90,30.14,3.0,Calm,Calm,-,0.01,,Clear,0,2013-09-11 11:54:00
7:54 AM,75.0,70.0,84,30.14,5.0,ENE,9.2,70.2,N/A,,Haze,60,2013-09-11 12:54:00
8:54 AM,82.0,69.1,65,30.15,10.0,Calm,Calm,-,N/A,,Clear,0,2013-09-11 13:54:00
9:54 AM,86.0,66.9,53,30.15,10.0,East,6.9,-,N/A,,Clear,100,2013-09-11 14:54:00
10:54 AM,89.1,66.0,46,30.14,10.0,Variable,4.6,-,N/A,,Mostly Cloudy,0,2013-09-11 15:54:00
11:54 AM,90.0,64.9,43,30.14,10.0,East,9.2,-,N/A,,Scattered Clouds,100,2013-09-11 16:54:00
12:54 PM,91.9,64.0,39,30.12,10.0,SE,9.2,-,N/A,,Scattered Clouds,140,2013-09-11 17:54:00
1:54 PM,91.9,63.0,38,30.10,10.0,South,6.9,-,N/A,,Scattered Clouds,170,2013-09-11 18:54:00
2:54 PM,93.0,62.1,36,30.07,10.0,Variable,4.6,-,N/A,,Mostly Cloudy,0,2013-09-11 19:54:00
3:54 PM,93.0,62.1,36,30.05,10.0,SE,5.8,-,N/A,,Mostly Cloudy,130,2013-09-11 20:54:00
4:54 PM,93.0,63.0,37,30.04,10.0,Calm,Calm,-,N/A,,Mostly Cloudy,0,2013-09-11 21:54:00
5:54 PM,91.0,63.0,39,30.04,10.0,ESE,4.6,-,N/A,,Scattered Clouds,120,2013-09-11 22:54:00
6:54 PM,88.0,64.0,45,30.03,10.0,ESE,4.6,-,N/A,,Scattered Clouds,110,2013-09-11 23:54:00
7:54 PM,84.2,65.8,54,30.05,10.0,ESE,5.8,-,N/A,,Partly Cloudy,110,2013-09-12 00:54:00
8:54 PM,79.3,67.5,67,30.06,10.0,ESE,3.5,-,N/A,,Partly Cloudy,110,2013-09-12 01:54:00
9:54 PM,79.3,67.5,67,30.07,10.0,ESE,3.5,-,N/A,,Partly Cloudy,110,2013-09-12 02:54:00
10:54 PM,77.5,67.5,71,30.07,10.0,ESE,5.8,-,N/A,,Clear,120,2013-09-12 03:54:00
11:54 PM,-9999,-9999,N/A,30.07,-9999.0,North,-9999.0,-,N/A,,Unknown,0,2013-09-12 04:54:00